[[{"header":{"parameterUnit":"m.s-1","parameterCategory":1,"la1":30.2991,"la2":30.254,"lo1":-89.0895,"lo2":-89.0444,"dy":0.0017,"dx":0.0017,"nx":28,"ny":28,"refTime":"2025-01-19T09:00:00:Z","depth":0,"parameterNumber":2,"parameterNumberName":"U-component_of_WINDS"},"data":[0,0,0,0,0,0,0,0,0,0,0,0,0,0,0,0,0,0,0,0,0,0,0,0,0,0,0,0,0,0,0,0,0,0,0,0,0,0,0,0,0,0,0,0,0,0,0,0,0,0,0,0,0,0,0,0,0,0,-2.4835,-2.4835,0,-2.4834,-2.4834,-2.4834,-2.4778,-2.4776,-2.4775,-2.4773,-2.4774,-2.4775,-2.4777,0,0,0,0,0,0,0,0,0,0,0,0,0,-2.4788,-2.479,-2.4835,-2.4835,-2.4835,-2.4834,-2.4834,-2.4834,-2.4778,-2.4776,-2.4774,-2.4773,-2.4773,-2.4775,-2.4777,0,0,0,0,0,0,0,0,0,0,0,0,0,-2.48,-2.479,-2.4835,-2.4807,-2.4804,-2.4834,-2.4834,-2.4834,-2.4778,-2.4776,-2.4774,-2.4772,-2.4773,-2.4775,-2.4777,-2.4835,0,0,-2.4783,-2.4784,0,0,0,0,0,0,0,0,-2.48,-2.4802,-2.4811,-2.4809,-2.4806,-2.4804,-2.4818,-2.4834,-2.4779,-2.4788,-2.4773,-2.4771,-2.4786,-2.4787,-2.4791,-2.4835,-2.4835,-2.4784,-2.4785,-2.4786,-2.4786,0,0,0,0,0,0,0,-2.4799,-2.4802,-2.4835,-2.4811,-2.4808,-2.4794,-2.4794,-2.4821,-2.48,-2.4787,-2.4783,-2.4784,-2.4784,-2.479,-2.4791,-2.4835,-2.4784,-2.4785,-2.4787,-2.4788,-2.4925,-2.4927,0,0,0,0,0,0,-2.4802,-2.4802,-2.4835,-2.4835,-2.4797,-2.4797,-2.4796,-2.4807,-2.4799,-2.4796,-2.4786,-2.4781,-2.4787,-2.4789,-2.4791,-2.4858,-2.4786,-2.4788,-2.4789,-2.4923,-2.4926,-2.4928,0,0,0,0,0,0,-2.4801,-2.4805,-2.4835,-2.4817,-2.482,-2.48,-2.4813,-2.4808,-2.4813,-2.4798,-2.4794,-2.4795,-2.4785,-2.4788,-2.4824,-2.4857,-2.4789,-2.4791,-2.492,-2.4924,-2.4927,-2.4993,0,0,0,0,0,0,-2.48,-2.4806,-2.4827,-2.4818,-2.4821,-2.4868,-2.4815,-2.4809,-2.4817,-2.4811,-2.4806,-2.4803,-2.4784,-2.4821,-2.4826,-2.4859,-2.4792,-2.4917,-2.4922,-2.4926,-2.4988,-2.4998,-2.5007,0,0,0,0,0,-2.4799,-2.4846,-2.4828,-2.4833,-2.4847,-2.487,-2.4872,-2.4849,-2.482,-2.4842,-2.4831,-2.4803,-2.4853,-2.4825,-2.4831,-2.4864,-2.4915,-2.492,-2.4925,-2.4983,-2.4996,-2.5007,0,0,0,0,0,0,-2.486,-2.4844,-2.4825,-2.487,-2.4872,-2.486,-2.4887,-2.4863,-2.4873,-2.4867,-2.4838,-2.4838,-2.4879,-2.4875,-2.4845,-2.492,-2.4879,-2.4885,-2.4921,-2.4933,-2.4943,-2.4943,-2.4794,0,0,0,0,0,-2.4879,-2.4898,-2.4883,-2.4925,-2.4927,-2.4907,-2.4916,-2.4898,-2.4899,-2.4899,-2.4892,-2.4894,-2.491,-2.4921,-2.4935,-2.4986,-2.4985,-2.5012,-2.5022,-2.503,-2.5037,-2.5064,-2.5076,-2.4946,-2.4946,-2.4946,0,0,-2.4918,-2.4912,-2.4926,-2.4937,-2.4936,-2.4958,-2.4908,-2.4932,-2.4948,-2.4903,-2.4937,-2.4931,-2.4932,-2.4976,-2.4995,-2.4974,-2.5072,-2.5037,-2.5044,-2.5046,-2.5071,-2.5083,-2.5094,-2.495,-2.4949,-2.4948,0,0,-2.5,-2.4997,-2.5032,-2.5032,-2.5031,-2.5017,-2.5026,-2.5018,-2.5012,-2.5045,-2.5012,-2.503,-2.5058,-2.506,-2.5065,-2.5147,-2.5121,-2.5152,-2.5204,-2.5231,-2.5241,-2.525,-2.5281,-2.5292,-2.5158,-2.5159,-2.5159,0,-2.505,-2.508,-2.5053,-2.508,-2.5086,-2.5045,-2.508,-2.5081,-2.5085,-2.5091,-2.5067,-2.5101,-2.5099,-2.5143,-2.5163,-2.5168,-2.5177,-2.5153,-2.5242,-2.5251,-2.5259,-2.5287,-2.5299,-2.5162,-2.5162,-2.5162,-2.5161,0,-2.514,-2.5162,-2.519,-2.5194,-2.5203,-2.5234,-2.5212,-2.5225,-2.5206,-2.5195,-2.5229,-2.5224,-2.5237,-2.5246,-2.5228,-2.5288,-2.5275,-2.5247,-2.5205,-2.5276,-2.5302,-2.5312,-2.5168,-2.5167,-2.5165,-2.5165,0,0,-2.5263,-2.5251,-2.5262,-2.5263,-2.5259,-2.5275,-2.5304,-2.5315,-2.5327,-2.5331,-2.5355,-2.5379,-2.5354,-2.5359,-2.534,-2.5364,-2.543,-2.5333,-2.5333,-2.5352,-2.5497,-2.5518,-2.5531,-2.5413,-2.5415,-2.5416,-2.5497,0,-2.5343,-2.5391,-2.5368,-2.5419,-2.5439,-2.54,-2.5426,-2.5426,-2.5416,-2.5432,-2.5421,-2.5439,-2.5403,-2.5406,-2.5428,-2.5418,-2.5459,-2.5411,-2.5435,-2.5437,-2.5438,-2.5545,-2.5568,-2.5644,-2.5507,-2.5509,-2.551,0,-2.5443,-2.5451,-2.5504,-2.5496,-2.5504,-2.5527,-2.5535,-2.555,-2.555,-2.5541,-2.5547,-2.5523,-2.5551,-2.5509,-2.5547,-2.5515,-2.5524,-2.552,-2.5523,-2.5525,-2.5478,-2.5551,-2.5668,-2.568,-2.5526,-2.5524,-2.5523,0,-2.5528,-2.5552,-2.5587,-2.5589,-2.558,-2.5597,-2.5595,-2.5592,-2.56,-2.5608,-2.5613,-2.5624,-2.563,-2.5639,-2.5619,-2.559,-2.5661,-2.5616,-2.5655,-2.5655,-2.5672,-2.5672,-2.5794,-2.5676,-2.5676,-2.5676,-2.5676,0,-2.5621,-2.5655,-2.5625,-2.5646,-2.5684,-2.5656,-2.5694,-2.5687,-2.5685,-2.5705,-2.5672,-2.5691,-2.5663,-2.5679,-2.5664,-2.5698,-2.5701,-2.5695,-2.5691,-2.5699,-2.57,-2.5705,-2.5699,-2.5679,-2.5678,-2.5677,-2.5677,0,-2.5723,-2.5703,-2.5739,-2.5727,-2.5725,-2.5753,-2.5744,-2.5763,-2.5751,-2.5777,-2.5781,-2.5762,-2.578,-2.576,-2.5777,-2.5766,-2.5813,-2.58,-2.5813,-2.581,-2.585,-2.5847,-2.598,-2.5996,-2.5868,-2.5869,-2.587,0,-2.5784,-2.5809,-2.58,-2.5811,-2.581,-2.5828,-2.5836,-2.5809,-2.5819,-2.5821,-2.584,-2.5855,-2.5866,-2.5897,-2.5885,-2.5897,-2.5885,-2.5931,-2.5887,-2.5894,-2.5887,-2.5886,-2.5889,-2.594,-2.5942,-2.5943,-2.5944,0,-2.5894,-2.5883,-2.5896,-2.5906,-2.5916,-2.5923,-2.5927,-2.5938,-2.591,-2.5923,-2.5941,-2.5949,-2.5966,-2.5981,-2.599,-2.5987,-2.5962,-2.5958,-2.5967,-2.5976,-2.5983,-2.5981,-2.5839,-2.5955,-2.5954,-2.5953,-2.5953,-2.5952,-2.5978,-2.5999,-2.5996,-2.6011,-2.6011,-2.6016,-2.6034,-2.6023,-2.6037,-2.6049,-2.6032,-2.6054,-2.6053,-2.6062,-2.6062,-2.608,-2.606,-2.6074,-2.6078,-2.6082,-2.6088,-2.598,-2.6081,-2.6081,-2.608,-2.608,-2.608,0,-2.6088,-2.6084,-2.6098,-2.6104,-2.6117,-2.609,-2.6093,-2.6105,-2.6125,-2.6125,-2.6136,-2.6157,-2.6172,-2.616,-2.6173,-2.6189,-2.6177,-2.6193,-2.6192,-2.6192,-2.6104,-2.6095,-2.6202,-2.6202,-2.6202,-2.6202,-2.6202,-2.6202,-2.6146,-2.618,-2.6169,-2.6203,-2.6198,-2.622,-2.6224,-2.6228,-2.6228,-2.6252,-2.6264,-2.6256,-2.6252,-2.6264,-2.6276,-2.6273,-2.6279,-2.63,-2.6292,-2.621,-2.6198,-2.6187,-2.6178,-2.6301,-2.6301,-2.6378,-2.6379,-2.638]},{"header":{"parameterUnit":"m.s-1","parameterCategory":1,"la1":30.2991,"la2":30.254,"lo1":-89.0895,"lo2":-89.0444,"dy":0.0017,"dx":0.0017,"nx":28,"ny":28,"refTime":"2025-01-19T09:00:00:Z","depth":0,"parameterNumber":3,"parameterNumberName":"V-component_of_WINDS"},"data":[0,0,0,0,0,0,0,0,0,0,0,0,0,0,0,0,0,0,0,0,0,0,0,0,0,0,0,0,0,0,0,0,0,0,0,0,0,0,0,0,0,0,0,0,0,0,0,0,0,0,0,0,0,0,0,0,0,0,-4.6162,-4.6162,0,-4.6201,-4.6202,-4.6202,-4.6176,-4.6175,-4.6174,-4.6173,-4.621,-4.6212,-4.6214,0,0,0,0,0,0,0,0,0,0,0,0,0,-4.606,-4.6062,-4.6161,-4.6162,-4.6163,-4.6201,-4.6202,-4.6202,-4.6177,-4.6175,-4.6174,-4.6172,-4.6209,-4.6211,-4.6214,0,0,0,0,0,0,0,0,0,0,0,0,0,-4.6102,-4.6062,-4.6161,-4.6155,-4.6154,-4.6201,-4.6202,-4.6202,-4.6177,-4.6175,-4.6173,-4.6172,-4.6208,-4.6211,-4.6214,-4.6269,0,0,-4.6224,-4.6225,0,0,0,0,0,0,0,0,-4.61,-4.6106,-4.6155,-4.6155,-4.6155,-4.6182,-4.6179,-4.6224,-4.6177,-4.6168,-4.6173,-4.6171,-4.6202,-4.6205,-4.6216,-4.627,-4.6272,-4.6224,-4.6226,-4.6227,-4.6228,0,0,0,0,0,0,0,-4.6097,-4.6104,-4.6177,-4.6156,-4.6156,-4.6148,-4.6152,-4.6188,-4.6194,-4.6169,-4.6167,-4.6172,-4.6201,-4.6214,-4.6217,-4.6273,-4.6224,-4.6227,-4.6229,-4.623,-4.6373,-4.6375,0,0,0,0,0,0,-4.6095,-4.6102,-4.6176,-4.6178,-4.6122,-4.6151,-4.6156,-4.6175,-4.6194,-4.6195,-4.6174,-4.6171,-4.6209,-4.6213,-4.6218,-4.6284,-4.6227,-4.623,-4.6232,-4.6371,-4.6374,-4.6376,0,0,0,0,0,0,-4.6093,-4.6102,-4.6174,-4.6139,-4.6148,-4.6155,-4.6177,-4.6177,-4.6189,-4.6198,-4.6198,-4.6185,-4.6208,-4.6214,-4.6257,-4.6285,-4.6232,-4.6234,-4.6369,-4.6372,-4.6375,-4.6415,0,0,0,0,0,0,-4.609,-4.6101,-4.6123,-4.614,-4.615,-4.6213,-4.6178,-4.6179,-4.6195,-4.6192,-4.6209,-4.621,-4.6207,-4.6252,-4.626,-4.6288,-4.6237,-4.6367,-4.637,-4.6374,-4.6411,-4.6419,-4.6425,0,0,0,0,0,-4.6086,-4.6132,-4.6124,-4.6133,-4.6178,-4.6215,-4.622,-4.6218,-4.6197,-4.6219,-4.6224,-4.6209,-4.628,-4.6257,-4.6265,-4.6295,-4.6365,-4.6369,-4.6374,-4.6408,-4.6417,-4.6425,0,0,0,0,0,0,-4.6116,-4.6134,-4.6126,-4.6178,-4.6195,-4.6211,-4.6237,-4.6227,-4.625,-4.6246,-4.624,-4.6244,-4.6289,-4.6296,-4.6269,-4.6348,-4.6319,-4.6325,-4.6342,-4.6351,-4.6358,-4.6356,-4.6239,0,0,0,0,0,-4.6129,-4.6159,-4.6172,-4.6217,-4.6226,-4.6231,-4.6247,-4.6243,-4.626,-4.6267,-4.6275,-4.6291,-4.6317,-4.6334,-4.6359,-4.6412,-4.6415,-4.6436,-4.6443,-4.6449,-4.6454,-4.6483,-4.6492,-4.639,-4.639,-4.639,0,0,-4.6155,-4.6168,-4.6188,-4.6223,-4.6236,-4.6267,-4.6237,-4.627,-4.6292,-4.6271,-4.6313,-4.632,-4.6337,-4.6385,-4.6407,-4.6393,-4.6483,-4.6454,-4.6459,-4.6461,-4.6488,-4.6498,-4.6507,-4.6393,-4.6393,-4.6392,0,0,-4.6219,-4.6232,-4.6271,-4.6285,-4.6306,-4.6308,-4.6318,-4.6335,-4.6339,-4.6381,-4.6366,-4.6391,-4.6436,-4.6449,-4.6462,-4.6531,-4.6518,-4.6539,-4.6576,-4.6604,-4.6612,-4.6619,-4.6644,-4.6653,-4.6544,-4.6544,-4.6544,0,-4.6248,-4.6295,-4.6292,-4.6327,-4.6343,-4.6327,-4.6366,-4.6379,-4.6406,-4.6417,-4.64,-4.6457,-4.6467,-4.6518,-4.6535,-4.6546,-4.6556,-4.6537,-4.6611,-4.6618,-4.6625,-4.6649,-4.6658,-4.6547,-4.6546,-4.6546,-4.6546,0,-4.6331,-4.6363,-4.6392,-4.642,-4.6439,-4.6476,-4.6477,-4.6497,-4.6491,-4.6495,-4.6538,-4.655,-4.6577,-4.6588,-4.6582,-4.6639,-4.6629,-4.6612,-4.6583,-4.6637,-4.6659,-4.6668,-4.655,-4.6549,-4.6548,-4.6548,0,0,-4.6414,-4.6441,-4.6452,-4.6464,-4.6486,-4.651,-4.6546,-4.6573,-4.659,-4.6609,-4.6638,-4.6676,-4.6661,-4.6675,-4.6671,-4.6695,-4.675,-4.6675,-4.6676,-4.6689,-4.6812,-4.6825,-4.6836,-4.6741,-4.6743,-4.6744,-4.6811,0,-4.648,-4.6544,-4.6542,-4.6601,-4.6631,-4.6616,-4.6647,-4.6662,-4.6667,-4.6692,-4.6696,-4.6723,-4.6701,-4.6709,-4.6733,-4.6738,-4.6774,-4.6733,-4.6767,-4.6769,-4.6764,-4.6847,-4.6861,-4.6924,-4.6819,-4.6821,-4.6822,0,-4.6565,-4.6588,-4.6651,-4.6668,-4.6681,-4.6709,-4.6734,-4.6758,-4.6775,-4.6777,-4.6793,-4.6785,-4.6819,-4.6789,-4.6837,-4.6809,-4.6822,-4.6827,-4.6829,-4.6833,-4.6799,-4.6853,-4.6944,-4.6953,-4.6835,-4.6834,-4.6833,0,-4.662,-4.6667,-4.6711,-4.6722,-4.6743,-4.6764,-4.6773,-4.6789,-4.6806,-4.6827,-4.6837,-4.6862,-4.6876,-4.6894,-4.6892,-4.687,-4.6941,-4.691,-4.6942,-4.6943,-4.6958,-4.6957,-4.7053,-4.6966,-4.6966,-4.6966,-4.6966,0,-4.6694,-4.6732,-4.6736,-4.6763,-4.6806,-4.6803,-4.6845,-4.6852,-4.6866,-4.6893,-4.6881,-4.6906,-4.6902,-4.6927,-4.6926,-4.6965,-4.6971,-4.6973,-4.6972,-4.6974,-4.6974,-4.6984,-4.6979,-4.6969,-4.6968,-4.6967,-4.6967,0,-4.6763,-4.6767,-4.6814,-4.6831,-4.6836,-4.6867,-4.688,-4.6905,-4.6909,-4.6943,-4.6951,-4.6956,-4.6985,-4.6985,-4.7017,-4.7016,-4.7065,-4.7059,-4.706,-4.7059,-4.7091,-4.7088,-4.7196,-4.721,-4.7114,-4.7115,-4.7116,0,-4.681,-4.684,-4.686,-4.6879,-4.689,-4.6919,-4.6936,-4.6934,-4.6953,-4.6975,-4.6997,-4.7025,-4.7047,-4.7094,-4.71,-4.7124,-4.7119,-4.7155,-4.7123,-4.7124,-4.712,-4.7119,-4.7122,-4.7162,-4.7163,-4.7163,-4.7164,0,-4.6893,-4.6894,-4.692,-4.6948,-4.6969,-4.699,-4.701,-4.7025,-4.7024,-4.7045,-4.7076,-4.7093,-4.7127,-4.7155,-4.7179,-4.7187,-4.7176,-4.7174,-4.7183,-4.7186,-4.7186,-4.7187,-4.7078,-4.7172,-4.7171,-4.7171,-4.717,-4.717,-4.6953,-4.6979,-4.6998,-4.7028,-4.7043,-4.7061,-4.7086,-4.7093,-4.7118,-4.7147,-4.7143,-4.7177,-4.7193,-4.7224,-4.7235,-4.726,-4.7247,-4.726,-4.7263,-4.7267,-4.7271,-4.7181,-4.7264,-4.7264,-4.7264,-4.7264,-4.7264,0,-4.7036,-4.7048,-4.7075,-4.7104,-4.7127,-4.7115,-4.7136,-4.7156,-4.7186,-4.7203,-4.7226,-4.726,-4.7287,-4.7295,-4.7321,-4.734,-4.7335,-4.7347,-4.7345,-4.7348,-4.728,-4.727,-4.735,-4.735,-4.735,-4.735,-4.735,-4.735,-4.7082,-4.7126,-4.7129,-4.7179,-4.719,-4.7224,-4.7237,-4.7254,-4.7267,-4.7307,-4.733,-4.7335,-4.7348,-4.7375,-4.7399,-4.74,-4.741,-4.7424,-4.7424,-4.7361,-4.7352,-4.7344,-4.7335,-4.7426,-4.7427,-4.7489,-4.7489,-4.749]}]]